This is the latest recevied weather packets stored in our database for station/object EA2CW-13. If no packets are shown the sender has not sent any weather packets the latest 10 day(s).
| Time | Temp. | Humidity | Pressure | Rain* | Wind** | Luminosity | Snow |
|---|---|---|---|---|---|---|---|
| 1777518860 | 17.22° C | 75% | 1049 hPa | - | - | 0 W/m² | - |
| 1777517924 | 17.22° C | 74% | 1048.3 hPa | - | - | 0 W/m² | - |
| 1777516988 | 17.22° C | 74% | 1048.6 hPa | - | - | 0 W/m² | - |
| 1777516052 | 17.22° C | 75% | 1048.7 hPa | - | - | 0 W/m² | - |
| 1777515116 | 17.22° C | 77% | 1048.4 hPa | - | - | 0 W/m² | - |
| 1777514180 | 16.67° C | 80% | 1048.3 hPa | - | - | 0 W/m² | - |
| 1777513244 | 16.67° C | 82% | 1048.1 hPa | - | - | 0 W/m² | - |
| 1777512308 | 16.67° C | 83% | 1048.3 hPa | - | - | 0 W/m² | - |
| 1777511372 | 16.67° C | 83% | 1048.4 hPa | - | - | 0 W/m² | - |
| 1777510436 | 16.67° C | 84% | 1048.4 hPa | - | - | 0 W/m² | - |
| 1777509500 | 16.67° C | 84% | 1048.5 hPa | - | - | 0 W/m² | - |
| 1777508565 | 16.67° C | 84% | 1048.2 hPa | - | - | 0 W/m² | - |
| 1777507629 | 16.67° C | 84% | 1047.7 hPa | - | - | 0 W/m² | - |
| 1777506693 | 16.67° C | 84% | 1047.5 hPa | - | - | 0 W/m² | - |
| 1777505757 | 16.67° C | 85% | 1047.7 hPa | - | - | 0 W/m² | - |
| 1777503885 | 16.67° C | 88% | 1048.9 hPa | - | - | 0 W/m² | - |
| 1777502949 | 16.67° C | 90% | 1048.8 hPa | - | - | 0 W/m² | - |
| 1777502013 | 16.67° C | 91% | 1048.4 hPa | - | - | 0 W/m² | - |
| 1777501077 | 16.67° C | 90% | 1048.6 hPa | - | - | 0 W/m² | - |
| 1777500141 | 16.67° C | 90% | 1048.3 hPa | - | - | 0 W/m² | - |
| 1777499205 | 16.67° C | 89% | 1048.4 hPa | - | - | 0 W/m² | - |
| 1777498269 | 17.22° C | 86% | 1048.7 hPa | - | - | 0 W/m² | - |
| 1777497333 | 17.22° C | 81% | 1048.6 hPa | - | - | 0 W/m² | - |
| 1777496397 | 17.78° C | 76% | 1048 hPa | - | - | 0 W/m² | - |
| 1777495548 | 18.89° C | 73% | 1047.6 hPa | - | - | 0 W/m² | - |
* Rain since midnight (hover to see other rain measurements)
** Current wind speed in m/s (hover to see current wind gust speed)